Addison, KY

5:32 PM CST on February 08, 2016 (GMT -0600)
Eveleigh Road | | Change Station
CLOSE
Current Station
Personal Weather Station
Location: Leitchfield, KY
Elevation: 670 ft
Nearby Weather Stations
Active Advisory: Special Statement

Elev 670 ft 37.58 °N, 86.34 °W | Updated 6 minutes ago

Snow
Snow
28.0 °F
Feels Like 16 °F
N
17.4
Wind Variable Wind from NNE
Gusts 17.4 mph

Today
High -- | Low -- °F
--% Chance of Precip.
Yesterday
High -- | Low -- °F
Precip. -- in
Pressure 29.78 in
Visibility 10.0 miles
Clouds Few 2000 ft
Scattered Clouds 2400 ft
Mostly Cloudy 4200 ft
Overcast 5500 ft
Windchill 16 °F
Dew Point 28 °F
Humidity 99%
Rainfall 0.07 in
Snow Depth Not available.
6:43 AM 5:16 PM
New Moon, 0% visible
SPECI KFTK 082329Z AUTO 28013G20KT 10SM FEW020 SCT024 BKN042 OVC055 M02/M06 A2978 RMK AO2 SNE10SNB18E29
Pressure 29.78 in
Visibility 10.0 miles
Clouds Few 2000 ft
Scattered Clouds 2400 ft
Mostly Cloudy 4200 ft
Overcast 5500 ft
Windchill 16 °F
Dew Point 28 °F
Humidity 99%
Rainfall 0.07 in
Snow Depth Not available.
6:43 AM 5:16 PM
New Moon, 0% visible
SPECI KFTK 082329Z AUTO 28013G20KT 10SM FEW020 SCT024 BKN042 OVC055 M02/M06 A2978 RMK AO2 SNE10SNB18E29

10-Day Weather Forecast

Almanac

Astronomy

Feb. 08, 2016 Rise Set
Actual Time
Civil Twilight
Nautical Twilight
Astronomical Twilight
Moon
Length of Visible Light
Length of Day
Tomorrow will be .
, % of the Moon is Illuminated

Today's Extremes

State Highs State Lows

Community

WunderPhotos

Upload Photos

1,891,525 photos uploaded!

WunderBlog® & News

Nearby

Air Quality

  Air Quality AQ Index Pollutant
Not available.

Snow Depth

Station Depth Elevation

Earthquake Activity

City Distance Mag. Time & Date
Minimum magnitude displayed is 2.5.

Coastal Water Temperatures

Place Temperature

Stations

Nearby Weather Stations

Station Location Temp. Windchill Dew Point Humidity Wind Precip. Elev Updated Type
                   

Watches & Warnings

Special Statement
Issued: 2:54 PM CST Feb. 8, 2016 – National Weather Service

... Snow showers this afternoon through Tuesday evening...

Colder air will filter into the region late this afternoon
producing scattered to numerous moderate snow showers through at
least Tuesday evening. Each passing snow shower may quickly
produce a light coating of snow creating slick spots especially on
untreated roadways. Overall up to 2 inches of snow is possible
through Tuesday evening.. in addition... gusty winds combined with
the snow showers may cause reductions in visibility at times. Use
caution if planning to travel this evening through Tuesday
evening.


Rjs